Boothville, LA

6:05 PM CDT on October 17, 2017 (GMT -0500)
Boothville

Weather History for KBVE - June, 2013

Change the Weather History Date:

Saturday, June 29, 2013

  Actual Average (KAXO) Record (KAXO)
Temperature  
Mean Temperature 84 °F -  
Max Temperature 86 °F 82 °F 91 °F (2014)
Min Temperature 82 °F 79 °F 80 °F (1998)
Cooling Degree Days 19    
Growing Degree Days 34 (Base 50)    
Moisture  
Dew Point 75 °F    
Average Humidity 76    
Maximum Humidity 88    
Minimum Humidity 65    
Precipitation  
Precipitation 0.01 in - - ()
Sea Level Pressure  
Sea Level Pressure 29.79 in    
Wind  
Wind Speed 12 mph (West)    
Max Wind Speed 18 mph    
Max Gust Speed 28 mph    
Visibility 10 miles    
Events      
Averages and records for this station are not official NWS values.
T = Trace of Precipitation, MM = Missing Value Source: NWS Daily Summary

Daily Weather History Graph

Daily Weather History Graph

Search for Another Location

Airport or City:

Trip Planner

Search our weather history database for the weather conditions in past years. The results will help you decide how hot, cold, wet, or windy it might be!

Date:

Astronomy

Jun. 29, 2013 Rise Set
Actual Time 6:01 AM CDT 8:01 PM CDT
Civil Twilight 5:33 AM CDT 8:28 PM CDT
Nautical Twilight 5:01 AM CDT 9:01 PM CDT
Astronomical Twilight 4:25 AM CDT 9:36 PM CDT
Moon 12:01 AM CDT (6/29) 12:38 PM CDT (6/29)
Length of Visible Light 14h 54m
Length of Day
14h 00m
Waning Gibbous, 55% of the Moon is Illuminated
Jun 29
Waning Gibbous
Jun 29
Last Quarter
Jul 8
New
Jul 15
First Quarter
Jul 22
Full

Hourly Weather History & Observations

Time (CDT) Temp. Heat Index Dew Point Humidity Pressure Visibility Wind Dir Wind Speed Gust Speed Precip Events Conditions
12:51 AM 84.9 °F 97.5 °F 79.0 °F 82% 29.83 in 10.0 mi WSW 11.5 mph - N/A   Partly Cloudy
1:37 AM 84.2 °F 96.1 °F 78.8 °F 84% 29.83 in 10.0 mi WSW 11.5 mph - N/A   Mostly Cloudy
1:51 AM 84.9 °F 97.5 °F 79.0 °F 82% 29.83 in 10.0 mi WSW 13.8 mph - N/A   Mostly Cloudy
2:18 AM 84.2 °F 96.1 °F 78.8 °F 84% 29.83 in 10.0 mi WSW 10.4 mph - N/A   Mostly Cloudy
2:51 AM 84.0 °F 93.7 °F 77.0 °F 79% 29.82 in 10.0 mi West 9.2 mph - N/A   Clear
3:51 AM 84.0 °F 93.7 °F 77.0 °F 79% 29.81 in 10.0 mi WSW 12.7 mph 18.4 mph N/A   Clear
4:51 AM 84.0 °F 93.7 °F 77.0 °F 79% 29.78 in 10.0 mi WSW 16.1 mph - N/A   Clear
5:51 AM 82.9 °F 91.8 °F 77.0 °F 82% 29.80 in 10.0 mi West 13.8 mph - N/A   Clear
6:51 AM 84.0 °F 93.7 °F 77.0 °F 79% 29.81 in 10.0 mi West 11.5 mph - N/A   Partly Cloudy
7:51 AM 84.0 °F 93.7 °F 77.0 °F 79% 29.81 in 10.0 mi WNW 11.5 mph 18.4 mph N/A   Partly Cloudy
8:51 AM 84.9 °F 94.1 °F 75.9 °F 74% 29.83 in 10.0 mi West 16.1 mph 24.2 mph N/A   Partly Cloudy
9:51 AM 86.0 °F 96.0 °F 75.9 °F 72% 29.82 in 10.0 mi West 18.4 mph 27.6 mph N/A   Clear
10:22 AM 82.4 °F 88.2 °F 73.4 °F 74% 29.82 in 10.0 mi WNW 8.1 mph - N/A   Partly Cloudy
10:51 AM 82.0 °F 86.7 °F 72.0 °F 71% 29.81 in 10.0 mi West 12.7 mph - 0.01 in   Overcast
11:32 AM 82.4 °F 88.2 °F 73.4 °F 74% 29.81 in 10.0 mi NW 12.7 mph 20.7 mph N/A   Mostly Cloudy
11:51 AM 82.9 °F 90.2 °F 75.0 °F 77% 29.81 in 10.0 mi West 13.8 mph 19.6 mph N/A   Mostly Cloudy
12:03 PM 82.4 °F 88.2 °F 73.4 °F 74% 29.81 in 10.0 mi WNW 9.2 mph 18.4 mph N/A   Partly Cloudy
12:10 PM 82.4 °F 87.2 °F 71.6 °F 70% 29.81 in 10.0 mi West 12.7 mph 19.6 mph N/A   Scattered Clouds
12:51 PM 82.9 °F 87.5 °F 71.1 °F 67% 29.81 in 10.0 mi West 11.5 mph - N/A   Partly Cloudy
1:51 PM 82.0 °F 86.3 °F 71.1 °F 69% 29.81 in 10.0 mi West 6.9 mph - N/A   Partly Cloudy
2:51 PM 82.0 °F 87.4 °F 73.0 °F 74% 29.80 in 10.0 mi WSW 13.8 mph - N/A   Scattered Clouds
3:51 PM 84.0 °F 91.2 °F 73.9 °F 72% 29.78 in 10.0 mi West 11.5 mph - N/A   Partly Cloudy
4:35 PM 84.2 °F 89.6 °F 71.6 °F 66% 29.75 in 10.0 mi WSW 9.2 mph - N/A   Partly Cloudy
4:51 PM 84.9 °F 90.7 °F 72.0 °F 65% 29.75 in 10.0 mi WSW 10.4 mph - N/A   Partly Cloudy
5:51 PM 84.0 °F 89.6 °F 72.0 °F 67% 29.74 in 10.0 mi WSW 11.5 mph - N/A   Clear
6:51 PM 84.0 °F 91.9 °F 75.0 °F 74% 29.74 in 10.0 mi WSW 10.4 mph - N/A   Clear
7:10 PM 82.4 °F 89.5 °F 75.2 °F 79% 29.73 in 10.0 mi WSW 10.4 mph - N/A   Partly Cloudy
7:51 PM 82.9 °F 90.8 °F 75.9 °F 79% 29.74 in 10.0 mi WSW 11.5 mph - N/A   Mostly Cloudy
8:51 PM 82.9 °F 90.2 °F 75.0 °F 77% 29.76 in 10.0 mi WSW 11.5 mph 20.7 mph N/A   Mostly Cloudy
9:12 PM 82.4 °F 89.5 °F 75.2 °F 79% 29.76 in 10.0 mi WSW 12.7 mph - N/A   Mostly Cloudy
9:51 PM 82.9 °F 90.8 °F 75.9 °F 79% 29.76 in 10.0 mi WSW 12.7 mph - N/A   Scattered Clouds
10:51 PM 82.0 °F 91.0 °F 78.1 °F 88% 29.77 in 10.0 mi WSW 13.8 mph - N/A   Clear
11:51 PM 82.0 °F 91.0 °F 78.1 °F 88% 29.77 in 10.0 mi WSW 12.7 mph - N/A   Scattered Clouds